RH
27 28 30 34 38 42 44 45 41 38 41 46 50 50 51 53 54 53 52 51 51 52 52 53 54 54 53 52 50 48 48 47 49 51 51 56 59 59 67 72 79 93 79 52 45 43 48 62 60 51 49 43 38 40 43 43 38 34 32 30 25 22 21
27 29 35 42 47 50 50 48 44 41 44 49 51 52 53 57 58 55 53 53 52 52 53 54 55 56 55 54 54 53 56 59 61 67 68 68 73 71 73 78 79 88 90 70 55 52 53 65 69 56 53 54 44 41 48 48 44 41 37 34 33 29 27
27 29 37 45 51 55 54 50 47 45 47 50 52 54 56 58 57 54 52 52 53 53 54 57 57 58 58 60 64 67 72 78 79 81 82 78 79 80 77 78 80 84 90 80 66 60 60 71 79 67 64 67 51 43 52 50 43 46 44 38 37 37 35
29 31 37 45 51 56 56 53 49 48 49 51 55 58 60 59 55 53 53 52 54 55 56 58 59 60 65 73 82 86 85 88 88 87 86 82 80 82 79 78 80 80 82 80 73 66 66 81 93 79 71 75 59 43 47 48 43 45 46 42 41 41 40
30 34 39 45 50 56 58 55 51 51 52 55 59 62 62 59 54 52 53 53 55 57 57 60 64 70 81 89 93 94 91 91 92 89 86 83 81 81 80 78 79 77 78 81 81 76 75 90 103 88 70 73 69 51 46 48 47 48 48 46 44 43 43
33 36 41 47 55 60 58 55 54 54 55 56 59 61 59 55 52 52 54 55 56 59 63 72 82 89 95 98 95 94 93 92 91 88 83 81 80 79 79 78 77 77 80 84 85 85 86 95 105 95 73 68 70 63 59 60 55 50 48 50 53 52 50
35 39 46 53 58 60 56 55 56 55 55 56 56 57 55 51 51 52 54 57 61 69 80 90 97 98 95 93 91 89 89 88 87 84 81 80 78 77 77 78 79 80 83 87 88 88 91 97 104 99 78 64 66 70 71 70 64 57 53 55 59 59 55
37 42 50 55 56 55 53 55 56 55 55 56 56 55 51 49 52 55 59 68 77 86 94 96 95 93 89 87 85 83 85 86 85 85 82 80 78 78 80 82 83 84 87 90 92 91 93 99 105 99 80 68 75 83 76 67 73 80 72 60 56 55 55
39 42 48 53 52 52 53 53 54 54 55 56 54 51 52 56 61 65 72 83 89 91 92 89 86 84 82 82 81 82 84 86 87 88 85 82 82 85 89 91 89 90 92 95 98 94 92 99 103 95 83 78 83 90 83 72 80 88 76 65 63 55 51
40 43 45 49 50 50 51 52 52 52 54 54 53 54 63 74 80 81 87 94 96 97 96 92 89 87 85 85 86 88 91 92 93 91 89 91 95 97 99 99 98 98 99 100 100 93 90 99 102 92 86 85 83 85 87 81 77 76 70 73 79 66 47
42 44 45 47 50 49 49 50 50 52 53 53 58 69 78 83 88 92 96 100 101 101 100 98 97 96 93 93 94 96 98 97 96 93 90 92 95 98 99 98 98 98 97 100 101 95 95 102 102 93 90 90 82 77 78 77 77 79 77 79 89 85 63
45 46 47 48 50 50 50 51 51 54 55 56 65 82 89 87 90 96 99 101 101 100 100 100 100 99 97 96 98 100 99 96 93 90 87 84 85 89 86 79 77 82 88 98 103 102 101 102 101 100 95 86 73 64 67 74 80 82 82 85 93 93 76
48 49 50 51 52 53 53 55 56 57 60 63 66 78 90 94 95 98 101 102 100 100 101 100 99 100 99 97 99 99 95 92 88 85 84 83 82 81 74 64 64 71 81 90 96 99 100 97 98 99 90 73 63 64 73 80 79 76 80 89 93 89 81
51 52 54 54 55 57 58 60 63 63 66 71 71 75 88 98 101 101 102 101 100 100 101 100 99 101 99 97 97 95 90 88 85 84 84 82 79 74 71 69 70 73 75 76 80 87 87 84 86 88 81 69 65 73 80 82 81 78 83 93 97 94 93
55 56 58 59 60 62 64 67 70 71 73 77 79 81 89 96 99 101 100 100 102 101 99 98 98 97 97 96 93 88 87 86 85 85 83 79 75 71 71 73 73 72 72 70 70 74 75 74 75 76 75 72 71 76 82 87 92 92 94 100 100 99 99
62 62 64 66 67 68 72 74 76 78 81 82 82 84 89 93 95 98 98 96 95 95 95 95 95 93 93 91 87 86 86 85 85 87 85 80 78 77 80 81 76 71 69 69 71 72 71 73 74 77 81 83 85 90 93 98 101 99 100 102 99 99 100
69 71 72 74 75 77 80 81 81 82 84 85 85 88 95 97 97 99 99 94 92 93 93 92 91 89 87 85 85 85 81 78 81 84 84 86 89 93 96 94 87 79 72 68 67 69 75 83 87 92 97 96 97 100 99 100 100 96 98 101 100 101 101
77 79 81 83 85 87 87 85 85 86 87 87 87 92 98 99 99 101 99 95 94 93 91 89 85 84 84 84 85 81 75 79 89 92 94 98 101 101 98 92 89 89 87 82 75 69 70 74 75 78 80 78 78 78 78 83 88 88 90 95 99 99 98
85 86 86 88 90 92 92 90 88 88 90 89 87 91 97 97 97 99 99 98 96 91 88 86 83 83 85 87 88 85 79 83 93 96 98 100 98 98 96 92 93 98 100 100 95 82 71 65 61 61 62 58 56 57 60 70 79 80 79 81 86 89 95
90 90 87 88 92 93 94 94 91 89 90 88 85 88 95 99 100 101 102 99 94 89 88 88 88 88 86 84 84 80 77 83 91 90 87 88 92 98 100 98 100 102 100 101 101 95 88 81 73 69 66 61 58 58 62 67 68 67 68 72 77 80 90
92 92 88 87 90 92 91 92 92 89 87 85 84 84 90 99 101 97 95 92 88 90 94 94 93 90 85 81 78 73 75 90 96 87 83 90 99 102 100 99 100 101 100 101 100 96 94 89 82 75 71 67 64 61 61 60 57 58 64 71 77 80 89
93 93 90 86 87 88 88 89 89 87 84 83 84 83 84 91 93 90 91 93 96 99 100 98 97 95 92 88 83 81 87 93 90 85 91 99 101 99 98 100 102 101 98 93 87 83 80 77 73 70 66 62 60 58 58 59 58 61 67 71 74 80 93
95 95 91 85 83 83 84 85 85 85 84 82 81 78 76 78 82 89 96 100 102 102 101 100 101 97 89 83 83 89 95 93 89 93 99 100 98 99 101 101 98 91 83 76 71 68 67 65 63 63 62 62 65 66 67 68 68 68 72 74 72 75 86
96 95 91 84 80 78 81 84 84 83 81 78 76 75 72 70 73 84 95 100 101 100 97 95 90 82 78 81 90 99 101 99 99 102 102 100 100 100 98 90 81 73 68 65 64 63 63 63 65 68 70 73 75 76 75 76 76 74 75 77 75 75 78
96 93 90 85 81 78 79 82 82 80 77 77 78 79 77 71 70 76 84 87 86 83 79 76 73 74 82 91 95 96 95 94 94 93 90 89 86 82 78 73 69 68 69 67 67 66 68 70 74 78 81 82 83 84 83 83 82 79 78 80 84 89 91
94 90 87 85 84 83 82 80 79 79 80 83 86 86 81 78 78 82 85 83 77 74 75 79 82 84 86 84 79 77 78 78 78 76 76 76 75 74 75 76 77 78 76 73 72 75 77 79 82 85 88 88 89 88 88 88 87 83 83 88 93 98 99
92 88 86 87 87 85 83 80 81 85 90 92 92 88 84 85 88 91 93 90 86 86 90 95 95 91 86 82 80 82 84 85 85 86 86 86 87 87 87 87 85 82 79 80 82 84 86 88 90 92 92 92 92 91 89 91 92 92 94 97 99 100 98
91 87 87 91 92 90 89 89 92 96 98 96 92 90 91 93 94 96 98 98 96 98 99 97 94 91 90 91 93 94 96 97 99 99 97 95 94 92 90 87 83 81 84 88 90 93 94 95 95 95 95 94 94 93 91 92 96 99 101 101 100 100 97
92 88 92 97 98 97 98 99 99 100 100 97 95 96 99 100 98 99 101 100 100 100 99 97 97 97 98 99 99 100 102 101 99 97 94 91 89 87 85 82 81 84 89 91 94 97 99 98 97 96 96 95 93 93 93 94 97 101 102 103 102 100 98
99 95 97 101 99 99 101 101 99 100 100 98 98 100 101 101 100 101 100 100 100 100 99 99 100 100 100 101 101 100 97 93 90 87 85 84 84 84 82 81 83 89 92 92 96 99 99 100 100 98 97 97 95 93 93 95 98 100 101 103 105 102 99
102 100 99 100 100 100 101 100 100 102 101 98 98 100 101 100 100 100 100 100 101 100 100 100 100 100 101 100 97 93 89 87 86 86 86 86 86 85 84 84 86 92 95 95 96 99 101 102 102 100 100 100 98 96 95 96 97 98 99 102 104 102 101
99 102 100 100 100 100 101 101 101 101 101 100 99 100 101 100 99 100 101 100 100 100 100 100 99 98 97 94 91 90 89 88 89 89 91 92 91 88 87 87 89 94 97 97 97 100 103 102 102 102 102 101 100 99 96 94 94 95 96 99 102 102 102
90 100 103 102 99 98 99 101 101 100 100 101 100 100 100 99 98 100 101 99 99 98 97 97 96 95 94 93 93 93 92 90 90 91 94 96 96 93 90 90 92 97 99 99 100 103 103 103 102 103 102 101 100 100 97 95 95 95 95 98 100 100 100
78 93 101 101 99 96 95 95 96 96 96 96 96 96 97 98 99 100 100 99 97 96 95 97 98 98 98 98 96 93 91 89 90 92 95 98 98 96 94 92 94 99 100 100 102 103 103 103 103 103 103 102 101 100 98 96 97 98 98 100 101 99 97
73 87 97 100 100 98 96 94 95 95 94 95 96 96 98 100 100 100 99 100 100 99 100 100 99 99 99 97 94 92 91 91 91 93 96 98 98 97 96 95 95 99 101 102 103 103 102 102 104 104 104 102 100 100 99 98 100 102 101 100 100 100 98
77 87 95 97 98 98 98 98 99 98 98 99 100 100 100 100 100 100 100 100 100 99 99 98 96 96 97 96 94 93 92 92 93 93 95 98 98 97 97 96 97 99 102 104 104 103 102 103 104 104 103 101 99 100 100 101 102 103 102 101 101 101 100
Wind_Speed
31 31 30 29 29 29 30 31 32 31 30 28 28 28 29 30 30 31 32 32 31 30 29 29 29 29 28 27 27 28 27 28 27 27 28 27 28 29 28 29 30 34 44 49 46 47 47 43 42 44 43 44 45 43 41 40 40 40 40 39 39 38 37
32 31 30 30 30 30 31 32 32 31 30 28 29 29 30 31 32 34 34 33 32 31 29 29 30 29 29 27 27 27 27 27 26 26 27 27 27 29 29 29 31 34 40 47 47 46 47 43 41 44 43 41 43 44 41 40 40 39 39 39 39 39 38
32 32 31 30 31 31 32 32 32 30 29 29 30 30 31 33 34 35 35 33 33 31 30 30 30 30 28 27 27 27 26 26 27 26 27 29 28 30 31 30 30 33 37 43 47 46 47 44 39 41 42 39 42 44 42 42 43 42 41 40 39 39 38
32 32 31 31 32 32 32 32 31 30 29 29 30 32 33 35 36 36 35 34 33 32 31 30 30 30 27 26 27 28 27 27 27 27 28 30 30 30 32 31 31 33 36 40 46 47 46 43 39 41 43 39 42 45 44 44 45 43 42 40 38 38 37
32 32 32 32 32 32 33 33 31 30 30 30 31 33 35 36 37 36 35 34 33 32 31 30 30 29 27 27 28 29 29 28 28 28 28 30 31 31 32 32 32 34 35 38 44 47 46 43 39 42 45 41 41 44 45 44 43 42 41 40 37 36 34
32 31 31 31 32 32 33 33 31 31 31 32 33 34 36 37 36 35 34 33 32 30 29 29 29 28 27 28 30 30 30 29 29 29 30 31 32 32 32 33 34 34 35 38 43 46 47 44 39 40 44 41 38 40 42 42 41 40 38 37 36 34 31
31 31 31 31 32 33 33 33 32 32 32 33 34 35 36 36 35 34 33 32 30 29 28 29 29 29 29 29 30 31 31 30 30 30 31 32 32 32 33 34 34 35 36 38 41 43 45 43 39 38 42 40 37 37 39 39 39 39 36 35 35 35 33
31 31 31 32 33 33 33 33 33 33 34 34 35 36 36 35 33 33 31 30 29 29 29 30 30 30 30 30 31 32 32 31 31 31 33 33 33 33 34 34 34 35 36 37 40 42 43 42 40 39 40 39 38 39 38 36 37 40 40 38 37 37 37
31 31 31 32 33 33 33 34 34 34 35 35 36 35 34 33 31 31 31 30 30 30 30 31 31 32 32 32 33 34 33 32 31 31 33 34 33 33 33 34 34 35 36 38 40 43 43 42 41 40 40 41 40 41 41 39 40 43 43 42 41 40 36
30 31 32 33 33 33 34 34 35 35 35 35 35 33 32 32 32 31 32 33 33 32 32 33 34 34 34 34 35 35 34 33 32 31 33 33 33 33 34 35 36 37 38 40 42 44 43 43 44 42 42 43 44 43 42 42 42 43 43 43 44 42 34
31 31 32 33 34 34 34 35 35 34 34 33 31 30 30 32 33 33 33 33 33 33 34 34 35 35 35 35 35 35 34 33 32 32 32 32 33 33 34 35 37 39 40 40 42 44 44 44 45 45 44 45 46 44 43 43 42 43 43 42 43 45 37
31 32 32 33 34 34 35 35 34 33 33 32 30 28 29 31 32 33 33 33 33 34 35 36 36 36 36 36 36 35 35 34 33 33 32 33 33 33 32 33 34 38 40 41 42 44 44 44 45 45 45 44 44 43 42 42 41 41 43 43 43 46 42
32 32 32 33 33 34 35 35 34 33 32 32 30 29 28 29 31 32 32 33 34 36 36 37 37 37 38 37 36 35 34 34 34 33 32 32 32 32 32 32 32 33 36 39 41 44 45 44 42 43 45 43 42 43 43 43 43 41 42 44 44 45 44
32 32 32 32 33 34 35 35 34 33 32 31 31 29 27 28 31 33 34 34 35 36 37 37 37 38 38 37 35 34 33 33 32 32 32 32 32 33 33 33 32 32 32 34 36 40 42 41 39 40 41 40 39 42 43 43 43 43 43 46 46 46 48
33 33 33 33 33 34 35 35 34 33 32 31 30 28 28 29 32 33 35 35 36 37 37 37 37 36 36 35 34 33 32 32 32 31 32 32 32 33 32 32 32 31 32 32 33 35 37 37 35 35 36 37 37 39 41 43 45 46 46 48 48 48 48
33 34 34 33 34 35 36 35 33 32 32 31 30 28 28 30 32 33 34 35 36 36 36 36 35 34 34 34 33 32 31 30 31 31 32 33 34 33 33 33 33 32 33 34 35 36 36 36 36 35 35 35 35 36 38 38 40 41 40 42 43 43 44
34 34 35 35 35 35 36 36 34 32 31 31 30 28 27 30 31 33 33 34 34 34 34 33 32 32 33 33 33 32 31 30 30 31 33 34 34 34 35 37 38 36 35 34 34 35 36 35 35 33 32 33 32 33 33 33 34 35 33 34 36 37 40
34 35 35 35 35 35 36 36 34 32 31 30 29 27 27 29 30 32 32 32 32 32 32 31 31 30 32 33 33 33 31 29 28 30 31 32 33 36 38 39 38 37 36 35 35 38 39 38 37 37 37 38 38 38 38 37 38 39 38 37 37 37 40
35 35 35 35 35 34 34 35 34 31 30 30 29 26 25 27 28 30 31 30 30 30 30 30 30 30 31 32 32 32 31 27 26 29 31 33 35 37 37 36 35 35 35 35 37 40 42 42 42 42 42 43 42 42 41 41 42 43 43 41 40 40 39
34 36 35 34 34 34 33 33 33 30 29 28 27 25 23 24 27 29 29 28 28 29 30 30 30 29 30 31 31 31 29 26 27 30 32 33 34 35 35 34 33 32 32 33 35 37 39 40 42 43 43 44 44 45 45 44 46 47 46 43 42 42 41
34 35 35 34 33 33 32 31 30 29 26 25 25 23 20 22 25 26 26 27 27 28 30 30 29 30 30 31 32 31 29 28 28 29 30 31 33 33 32 30 29 30 31 32 35 37 38 40 41 43 45 46 48 49 49 49 50 49 47 43 41 42 42
34 34 35 34 32 32 30 28 27 25 23 21 20 19 18 20 23 23 25 28 29 29 30 30 30 30 31 31 31 30 28 28 27 28 30 31 31 30 30 29 30 32 34 35 38 39 41 43 43 45 48 49 50 51 50 50 49 48 45 42 41 40 39
34 33 34 33 32 30 28 25 22 20 18 17 16 17 19 21 22 23 24 27 29 29 29 30 31 31 31 30 29 27 26 26 27 29 31 31 29 30 32 33 34 35 36 38 39 41 43 45 45 46 47 47 47 46 44 44 44 43 42 41 41 40 38
33 32 33 33 31 29 26 22 18 15 14 15 17 19 21 22 23 23 23 25 27 28 29 30 30 29 28 26 26 26 26 27 29 31 32 32 32 34 35 36 36 36 37 38 39 40 42 43 43 42 42 42 40 40 40 40 41 41 40 39 40 40 40
32 32 32 31 30 29 25 19 15 15 16 19 20 21 23 23 23 22 22 23 25 26 27 28 27 27 26 26 27 29 31 32 32 33 34 34 35 35 35 35 35 36 37 38 38 38 39 39 38 37 37 37 37 37 38 39 39 39 37 35 35 36 37
31 30 30 29 28 26 22 18 18 21 22 22 22 23 25 24 23 21 21 23 25 26 27 27 26 26 27 28 29 30 31 31 31 31 31 31 31 32 34 35 37 38 37 37 36 36 36 36 35 35 35 35 35 36 37 36 35 35 33 31 30 31 31
30 29 27 26 25 23 22 23 25 27 26 24 25 26 25 23 21 21 23 26 27 27 25 24 24 25 27 28 29 29 29 30 30 30 31 33 34 36 37 38 38 37 35 34 34 34 35 34 34 34 34 34 34 34 33 31 30 31 31 28 26 26 28
28 26 24 23 23 24 27 30 30 29 28 27 27 26 24 22 23 25 27 27 25 23 22 23 25 26 27 27 28 28 29 30 31 33 35 37 39 39 39 37 35 33 32 31 31 32 33 33 32 32 32 32 31 32 30 28 26 27 27 25 23 24 27
27 25 24 24 26 28 31 32 32 29 28 28 27 26 26 26 27 27 26 23 20 21 23 25 26 26 27 28 29 31 32 34 36 38 39 40 39 38 35 32 31 30 30 29 29 30 30 30 30 31 30 29 30 30 28 25 24 25 25 24 24 25 27
24 24 25 27 29 29 29 30 31 28 27 27 26 25 25 26 26 25 26 24 23 25 26 27 28 29 30 32 34 35 37 38 39 40 39 37 34 32 29 28 28 28 28 27 27 28 28 28 28 29 28 27 29 29 27 25 24 24 25 25 25 26 26
21 21 23 25 27 28 28 30 31 28 27 27 26 23 22 22 21 23 27 29 28 28 29 30 31 33 34 35 37 38 39 39 38 37 35 33 30 28 27 27 27 26 26 26 27 26 26 26 26 26 26 26 27 28 27 26 25 24 24 25 25 26 26
21 20 20 21 23 25 27 28 28 26 25 24 23 22 22 23 21 22 26 30 30 30 31 32 34 35 36 37 38 39 38 37 35 33 31 30 29 27 26 25 26 25 25 25 25 25 25 24 23 24 24 25 25 26 27 26 25 24 24 25 25 25 24
23 21 20 20 22 24 25 25 25 24 24 23 23 24 25 25 22 20 25 31 33 33 34 35 36 37 37 38 38 37 36 34 32 30 29 28 28 27 26 25 25 24 24 24 24 24 24 23 22 23 23 24 24 24 25 26 25 24 24 24 25 24 23
24 23 23 22 21 21 23 24 24 25 25 25 25 23 20 20 20 20 25 31 33 33 34 35 36 37 37 36 35 34 32 30 29 28 27 27 26 26 26 25 24 24 24 23 23 23 23 22 22 22 22 23 23 23 24 24 24 24 24 23 24 24 23
27 25 24 24 23 22 21 22 23 24 24 24 22 19 16 19 23 25 28 30 31 32 34 35 36 36 35 33 31 30 28 27 27 26 25 25 25 25 25 25 24 23 23 22 22 22 22 21 21 21 21 22 22 23 24 24 23 23 23 23 23 24 23
30 27 26 25 24 22 22 22 22 23 23 21 18 16 18 24 28 29 30 32 32 32 32 32 32 32 30 28 27 26 26 25 25 24 24 24 24 24 24 24 24 23 22 22 21 21 21 20 21 21 20 20 21 22 23 23 22 22 22 22 22 23 24
Wind_Direction
294 295 295 294 292 292 293 293 294 295 293 288 285 287 291 295 297 297 297 296 295 294 294 292 291 289 288 287 285 284 283 282 281 280 278 278 279 278 277 280 279 279 283 287 289 290 292 296 298 298 298 298 298 298 299 298 296 296 295 294 292 288 284
293 294 294 293 291 291 292 292 293 293 289 285 284 287 292 296 298 298 297 296 294 294 293 291 288 287 287 286 284 283 282 281 281 280 280 279 278 279 279 279 280 280 282 286 289 291 293 296 298 296 298 299 297 297 299 298 296 295 295 294 293 291 288
292 292 292 291 290 290 291 292 292 290 287 284 285 289 292 295 296 297 296 294 292 292 290 288 286 285 285 285 282 280 280 280 280 280 280 280 279 280 280 280 280 281 282 285 289 292 294 296 297 296 296 297 296 295 296 295 295 295 295 294 293 293 291
290 289 288 288 288 289 291 291 291 289 286 285 286 289 291 293 294 294 294 292 291 290 288 286 285 284 284 282 279 279 279 279 280 281 280 281 280 280 281 282 282 281 282 285 288 290 292 293 293 294 294 295 294 294 294 294 295 296 296 294 293 293 292
287 286 285 285 286 289 290 291 291 289 287 286 287 288 289 291 293 293 292 291 289 288 286 284 283 281 280 279 278 278 279 280 281 282 281 281 281 282 283 284 283 283 284 284 285 288 290 290 290 291 292 293 294 295 295 296 296 296 296 297 296 294 293
285 284 284 284 286 288 289 290 289 287 286 286 286 287 288 290 291 291 290 289 287 285 283 281 279 278 277 277 278 278 280 280 281 282 282 282 282 284 284 284 284 284 284 283 283 286 287 287 288 290 291 292 294 296 296 296 297 297 297 298 298 296 294
284 284 283 284 285 287 288 289 288 286 285 286 287 288 289 289 290 290 289 287 284 281 279 277 276 277 276 276 277 278 280 281 282 283 283 283 284 285 285 284 284 284 284 283 283 284 285 286 287 289 291 294 296 295 293 295 297 298 298 298 299 299 298
285 284 283 283 285 286 287 287 285 285 286 287 288 289 289 290 290 289 286 282 280 278 276 276 275 275 276 276 277 279 280 282 284 284 284 284 284 284 283 284 285 285 284 284 284 284 285 286 286 288 291 294 293 291 292 297 297 295 297 299 300 300 298
285 284 283 283 284 285 285 284 284 286 287 289 290 290 291 291 290 287 284 282 281 280 278 278 278 277 278 278 279 280 281 283 285 285 285 286 286 285 285 285 285 285 285 284 283 284 285 285 284 285 289 290 289 289 293 298 295 292 294 298 298 296 296
284 283 283 284 284 284 283 283 285 286 288 290 291 293 294 292 289 288 287 286 286 285 285 285 284 283 282 282 283 284 285 287 288 287 286 285 283 281 282 282 282 282 282 281 281 282 283 283 282 284 287 288 290 292 292 293 293 292 294 295 294 295 296
283 283 283 284 284 284 284 284 286 288 289 290 290 289 288 287 286 286 284 284 285 285 285 284 284 283 283 283 284 285 286 287 287 286 284 280 275 272 272 274 274 275 276 276 277 279 280 279 280 284 287 287 290 292 290 290 290 291 292 291 289 291 294
284 284 284 284 285 285 286 287 288 288 289 288 286 283 281 280 280 280 280 281 282 281 281 282 282 282 281 282 283 284 286 286 284 283 281 278 275 272 272 273 272 273 274 274 274 275 277 278 279 283 285 286 289 289 289 290 289 288 288 287 285 286 291
286 286 286 286 286 287 288 288 289 289 288 287 285 282 278 277 278 279 279 279 279 279 279 279 280 281 281 282 283 284 285 285 284 283 280 278 277 276 277 278 278 276 275 274 273 273 274 275 276 278 281 285 288 287 287 287 286 287 286 284 283 286 291
288 288 288 288 288 288 288 288 289 290 289 288 286 283 279 277 277 278 277 275 276 276 276 277 279 280 281 282 283 283 284 283 283 282 280 280 280 281 282 282 281 279 276 273 272 273 275 277 277 277 279 283 284 282 282 282 284 288 288 286 287 289 291
290 290 290 290 290 289 289 289 291 291 290 287 285 283 279 276 274 274 273 272 272 274 275 276 278 279 281 282 282 283 283 283 283 283 282 282 283 283 283 282 281 281 280 280 279 279 281 283 282 281 281 281 281 281 283 285 286 287 287 286 285 286 287
292 292 292 291 291 291 291 291 292 291 289 287 284 282 279 275 273 273 272 271 272 273 274 276 278 279 280 282 283 283 282 282 283 282 282 283 285 286 286 285 286 287 286 286 286 285 286 287 286 286 285 285 285 285 287 290 289 288 287 286 284 285 287
293 293 293 293 293 293 293 293 293 291 289 287 284 282 279 276 275 275 274 273 273 274 275 276 278 280 281 282 282 281 281 282 281 280 281 282 283 284 284 285 288 290 290 288 284 282 283 282 281 281 279 279 278 277 281 287 288 287 287 287 285 285 286
294 294 294 294 294 293 293 292 292 291 289 286 283 280 277 275 275 274 274 274 274 275 276 277 279 279 281 281 281 281 284 286 284 281 280 280 279 280 282 285 289 291 290 288 283 280 279 277 276 276 275 274 273 272 276 283 286 286 286 286 283 282 283
294 294 294 294 294 293 292 292 292 291 288 285 281 277 274 274 274 275 276 276 277 278 279 280 280 280 279 279 280 282 285 286 283 280 279 279 281 282 283 285 288 289 286 284 281 280 280 279 279 279 278 278 277 277 278 282 285 288 288 287 284 281 280
295 295 295 295 294 294 293 292 292 291 288 283 279 275 272 272 274 275 277 278 280 281 282 281 280 279 278 277 278 281 283 281 278 277 278 280 281 281 283 285 285 282 278 277 277 278 280 280 281 281 281 281 280 281 283 284 285 287 287 286 283 280 276
296 296 296 296 295 294 294 293 293 292 286 280 276 272 267 267 270 273 278 282 283 283 283 284 284 284 283 282 282 284 284 282 279 277 277 279 280 281 284 283 277 273 274 277 279 280 281 281 281 281 281 282 283 284 285 286 286 286 285 283 279 276 273
297 297 297 296 296 295 294 295 294 290 284 278 274 270 266 266 268 273 280 283 284 285 286 288 288 288 287 287 288 288 287 285 281 279 277 278 280 280 278 273 272 276 281 283 284 285 284 283 283 283 282 283 284 285 285 285 284 283 281 278 274 271 268
299 298 297 297 297 296 297 298 294 287 280 277 275 273 272 270 270 273 279 283 285 286 286 285 284 285 287 289 289 289 287 283 278 276 276 276 276 273 272 273 278 283 286 287 287 287 286 285 285 285 285 285 285 285 285 285 283 282 281 279 275 270 264
301 299 298 298 299 299 300 299 292 283 280 283 285 284 282 280 279 278 279 280 280 278 278 280 282 285 288 289 288 284 279 275 272 273 274 275 274 273 274 278 282 285 288 289 288 287 286 285 285 285 286 286 287 288 288 287 286 286 285 283 279 274 268
302 301 300 300 300 301 302 299 293 290 292 295 295 291 290 291 291 285 279 276 274 274 278 282 284 284 284 282 278 273 270 269 269 271 272 273 274 275 278 281 285 290 292 291 289 287 286 285 285 287 288 289 291 292 291 292 292 291 289 284 279 276 271
303 302 301 300 301 302 302 299 299 302 304 304 300 297 297 299 298 293 287 285 284 286 289 289 286 282 279 277 276 275 276 277 277 278 278 279 281 283 285 289 292 294 293 290 289 289 288 287 289 291 291 293 294 293 293 295 295 293 289 285 283 282 278
304 303 302 302 304 306 306 306 308 310 309 306 302 301 303 303 300 296 293 292 293 294 291 285 281 279 278 280 281 282 283 284 285 287 288 288 289 289 290 292 293 291 289 289 290 290 289 290 292 293 293 294 294 293 294 296 296 294 291 290 292 292 287
305 304 304 306 309 312 312 311 311 309 307 305 304 306 307 304 301 299 296 295 294 289 281 277 278 279 280 282 282 282 282 282 283 284 285 286 287 288 289 289 288 286 286 287 288 288 288 289 291 292 293 294 294 294 296 298 297 295 295 296 295 288 283
308 309 310 310 311 313 311 307 305 305 304 303 305 305 303 301 301 301 299 294 286 277 275 277 280 280 280 281 280 281 282 283 283 284 285 286 286 287 286 285 284 284 285 286 286 286 287 288 291 292 294 295 295 295 298 301 301 300 300 300 296 286 280
305 303 304 304 304 303 301 297 297 297 295 293 293 293 292 292 294 294 292 286 279 275 276 277 278 278 279 281 282 283 285 287 288 289 288 288 287 285 284 283 283 284 286 286 286 286 287 290 292 294 295 296 296 297 300 305 306 305 303 302 299 292 286
298 288 286 288 288 287 284 283 284 286 287 287 288 287 284 281 281 283 284 281 276 274 273 273 275 278 280 282 284 287 289 291 292 292 290 289 288 286 284 284 284 284 284 285 286 287 288 290 293 294 296 297 297 299 303 307 308 308 306 302 300 297 294
300 287 280 276 275 277 279 280 283 286 288 288 286 282 277 272 271 277 281 278 273 272 273 275 278 281 283 285 288 290 292 293 292 290 289 288 287 286 285 284 284 283 284 285 287 288 289 291 292 294 295 297 297 299 303 307 309 309 306 300 297 296 296
304 299 291 281 274 273 275 277 280 280 280 278 275 273 273 271 268 267 269 271 272 275 277 280 282 283 285 288 290 291 292 291 289 288 286 285 285 285 285 284 284 284 283 284 286 288 290 291 293 295 296 297 296 299 303 308 310 309 306 300 296 295 294
307 306 303 297 290 283 279 278 278 276 275 274 274 276 280 280 275 268 267 271 274 277 279 280 283 285 287 288 289 289 289 288 287 286 285 284 283 283 283 283 283 283 283 284 285 286 288 290 293 296 298 297 297 299 303 307 310 310 308 303 298 295 291
310 310 307 304 302 299 294 290 287 285 284 284 287 294 296 287 278 272 270 271 272 274 277 280 282 284 286 286 287 287 287 287 287 287 286 285 284 284 283 283 283 284 284 285 285 286 288 291 294 296 297 296 297 300 305 308 310 310 308 304 300 296 292
311 311 308 305 305 305 301 297 294 292 292 292 294 293 283 273 269 268 268 270 272 275 278 279 280 282 284 285 287 288 289 289 289 288 288 287 286 285 284 284 284 286 286 285 285 286 289 292 293 295 296 296 297 301 305 308 309 308 307 304 301 297 293